Time,TemperatureF,DewpointF,PressureIn,WindDirection,WindDirectionDegrees,WindSpeedMPH,WindSpeedGustMPH,Humidity,HourlyPrecipIn,Conditions,Clouds,dailyrainin,SoftwareType,DateUTC
2013-02-24 00:01:00,23.5,20.2,29.92,North,349,3.0,4.0,87,0.00,,---,0.00,VWS V13.01,2013-02-24 06:01:00,
2013-02-24 00:06:00,23.5,19.9,29.92,North,355,2.0,5.0,86,0.00,,---,0.00,VWS V13.01,2013-02-24 06:06:00,
2013-02-24 00:11:00,23.5,19.9,29.93,North,355,2.0,5.0,86,0.00,,---,0.00,VWS V13.01,2013-02-24 06:11:00,
2013-02-24 00:16:00,23.5,19.9,29.93,North,355,1.0,5.0,86,0.00,,---,0.00,VWS V13.01,2013-02-24 06:16:00,
2013-02-24 00:21:00,23.5,19.9,29.93,North,355,2.0,5.0,86,0.00,,---,0.00,VWS V13.01,2013-02-24 06:21:00,
2013-02-24 00:26:00,23.5,19.9,29.93,North,355,0.0,5.0,86,0.00,,---,0.00,VWS V13.01,2013-02-24 06:26:00,
2013-02-24 00:31:00,23.5,20.2,29.93,North,355,0.0,5.0,87,0.00,,---,0.00,VWS V13.01,2013-02-24 06:31:00,
2013-02-24 00:36:00,23.4,20.1,29.93,North,355,0.0,1.0,87,0.00,,---,0.00,VWS V13.01,2013-02-24 06:36:00,
2013-02-24 00:41:00,23.4,20.1,29.94,North,355,1.0,2.0,87,0.00,,---,0.00,VWS V13.01,2013-02-24 06:41:00,
2013-02-24 00:46:00,23.4,20.1,29.94,North,355,2.0,2.0,87,0.00,,---,0.00,VWS V13.01,2013-02-24 06:46:00,
2013-02-24 00:51:00,23.3,20.0,29.94,NW,309,2.0,3.0,87,0.00,,---,0.00,VWS V13.01,2013-02-24 06:51:00,
2013-02-24 00:56:00,23.3,20.0,29.94,NNW,330,2.0,3.0,87,0.00,,---,0.00,VWS V13.01,2013-02-24 06:56:00,
2013-02-24 01:01:00,23.3,20.0,29.94,NNW,331,0.0,3.0,87,0.00,,---,0.00,VWS V13.01,2013-02-24 07:01:00,
2013-02-24 01:06:00,23.3,20.0,29.94,NNW,331,1.0,2.0,87,0.00,,---,0.00,VWS V13.01,2013-02-24 07:06:00,
2013-02-24 01:11:00,23.2,19.9,29.95,NNW,331,0.0,2.0,87,0.00,,---,0.00,VWS V13.01,2013-02-24 07:11:00,
2013-02-24 01:16:00,23.2,19.9,29.95,NNW,331,2.0,2.0,87,0.00,,---,0.00,VWS V13.01,2013-02-24 07:16:00,
2013-02-24 01:21:00,23.1,19.8,29.95,NNW,344,1.0,3.0,87,0.00,,---,0.00,VWS V13.01,2013-02-24 07:21:00,
2013-02-24 01:26:00,23.2,19.9,29.95,North,355,0.0,3.0,87,0.00,,---,0.00,VWS V13.01,2013-02-24 07:26:00,
2013-02-24 01:31:00,23.1,19.8,29.95,North,355,0.0,3.0,87,0.00,,---,0.00,VWS V13.01,2013-02-24 07:31:00,
2013-02-24 01:36:00,23.1,19.8,29.95,North,355,0.0,2.0,87,0.00,,---,0.00,VWS V13.01,2013-02-24 07:36:00,
2013-02-24 01:41:00,23.1,19.8,29.95,North,355,1.0,2.0,87,0.00,,---,0.00,VWS V13.01,2013-02-24 07:41:00,
2013-02-24 01:46:00,23.0,19.7,29.95,North,355,1.0,2.0,87,0.00,,---,0.00,VWS V13.01,2013-02-24 07:46:00,
2013-02-24 01:51:00,23.0,19.7,29.95,North,355,0.0,2.0,87,0.00,,---,0.00,VWS V13.01,2013-02-24 07:51:00,
2013-02-24 01:56:00,23.0,19.7,29.96,North,355,1.0,2.0,87,0.00,,---,0.00,VWS V13.01,2013-02-24 07:56:00,
2013-02-24 02:02:00,22.9,19.6,29.96,North,355,0.0,2.0,87,0.00,,---,0.00,VWS V13.01,2013-02-24 08:02:00,
2013-02-24 02:07:00,22.9,19.6,29.96,North,350,1.0,3.0,87,0.00,,---,0.00,VWS V13.01,2013-02-24 08:07:00,
2013-02-24 02:12:00,22.8,19.2,29.96,North,350,2.0,3.0,86,0.00,,---,0.00,VWS V13.01,2013-02-24 08:12:00,
2013-02-24 02:17:00,22.8,19.2,29.96,North,355,1.0,3.0,86,0.00,,---,0.00,VWS V13.01,2013-02-24 08:17:00,
2013-02-24 02:22:00,22.7,19.1,29.96,NNW,344,2.0,4.0,86,0.00,,---,0.00,VWS V13.01,2013-02-24 08:22:00,
2013-02-24 02:27:00,22.7,19.1,29.96,NNE,15,0.0,4.0,86,0.00,,---,0.00,VWS V13.01,2013-02-24 08:27:00,
2013-02-24 02:32:00,22.7,19.1,29.96,NNW,342,1.0,4.0,86,0.00,,---,0.00,VWS V13.01,2013-02-24 08:32:00,
2013-02-24 02:37:00,22.7,19.1,29.97,NNW,343,0.0,2.0,86,0.00,,---,0.00,VWS V13.01,2013-02-24 08:37:00,
2013-02-24 02:42:00,22.7,19.1,29.97,NNW,342,1.0,2.0,86,0.00,,---,0.00,VWS V13.01,2013-02-24 08:42:00,
2013-02-24 02:47:00,22.6,19.0,29.97,NNW,342,2.0,2.0,86,0.00,,---,0.00,VWS V13.01,2013-02-24 08:47:00,
2013-02-24 02:52:00,22.6,19.0,29.97,NNW,342,2.0,3.0,86,0.00,,---,0.00,VWS V13.01,2013-02-24 08:52:00,
2013-02-24 02:57:00,22.5,19.0,29.97,North,355,2.0,3.0,86,0.00,,---,0.00,VWS V13.01,2013-02-24 08:57:00,
2013-02-24 03:02:00,22.4,18.9,29.97,North,355,1.0,3.0,86,0.00,,---,0.00,VWS V13.01,2013-02-24 09:02:00,
2013-02-24 03:07:00,22.4,18.9,29.97,North,355,0.0,2.0,86,0.00,,---,0.00,VWS V13.01,2013-02-24 09:07:00,
2013-02-24 03:12:00,22.4,18.9,29.97,North,355,1.0,2.0,86,0.00,,---,0.00,VWS V13.01,2013-02-24 09:12:00,
2013-02-24 03:17:00,22.4,18.9,29.97,North,355,1.0,3.0,86,0.00,,---,0.00,VWS V13.01,2013-02-24 09:17:00,
2013-02-24 03:22:00,22.3,18.8,29.97,North,355,0.0,3.0,86,0.00,,---,0.00,VWS V13.01,2013-02-24 09:22:00,
2013-02-24 03:27:00,22.3,18.8,29.97,North,355,0.0,3.0,86,0.00,,---,0.00,VWS V13.01,2013-02-24 09:27:00,
2013-02-24 03:32:00,22.3,18.8,29.97,North,355,0.0,3.0,86,0.00,,---,0.00,VWS V13.01,2013-02-24 09:32:00,
2013-02-24 03:37:00,22.3,18.8,29.98,North,355,1.0,2.0,86,0.00,,---,0.00,VWS V13.01,2013-02-24 09:37:00,
2013-02-24 03:42:00,22.3,18.8,29.98,North,355,0.0,2.0,86,0.00,,---,0.00,VWS V13.01,2013-02-24 09:42:00,
2013-02-24 03:47:00,22.3,18.8,29.98,North,355,0.0,2.0,86,0.00,,---,0.00,VWS V13.01,2013-02-24 09:47:00,
2013-02-24 03:52:00,22.2,18.7,29.98,North,349,1.0,2.0,86,0.00,,---,0.00,VWS V13.01,2013-02-24 09:52:00,
2013-02-24 03:57:00,22.2,18.7,29.98,North,349,1.0,2.0,86,0.00,,---,0.00,VWS V13.01,2013-02-24 09:57:00,
2013-02-24 04:02:00,22.3,18.8,29.99,North,349,1.0,2.0,86,0.00,,---,0.00,VWS V13.01,2013-02-24 10:02:00,
2013-02-24 04:07:00,22.3,18.8,29.99,North,349,1.0,2.0,86,0.00,,---,0.00,VWS V13.01,2013-02-24 10:07:00,
2013-02-24 04:12:00,22.3,18.8,29.99,North,349,1.0,2.0,86,0.00,,---,0.00,VWS V13.01,2013-02-24 10:12:00,
2013-02-24 04:17:00,22.3,18.8,29.99,North,355,2.0,3.0,86,0.00,,---,0.00,VWS V13.01,2013-02-24 10:17:00,
2013-02-24 04:22:00,22.3,18.8,29.99,North,355,0.0,3.0,86,0.00,,---,0.00,VWS V13.01,2013-02-24 10:22:00,
2013-02-24 04:27:00,22.4,18.6,29.99,North,355,1.0,3.0,85,0.00,,---,0.00,VWS V13.01,2013-02-24 10:27:00,
2013-02-24 04:32:00,22.4,18.6,30.00,NNW,344,2.0,2.0,85,0.00,,---,0.00,VWS V13.01,2013-02-24 10:32:00,
2013-02-24 04:37:00,22.4,18.6,30.00,NNW,345,1.0,2.0,85,0.00,,---,0.00,VWS V13.01,2013-02-24 10:37:00,
2013-02-24 04:42:00,22.4,18.9,30.00,NNW,344,2.0,2.0,86,0.00,,---,0.00,VWS V13.01,2013-02-24 10:42:00,
2013-02-24 04:47:00,22.4,18.6,30.00,North,355,3.0,3.0,85,0.00,,---,0.00,VWS V13.01,2013-02-24 10:47:00,
2013-02-24 04:52:00,22.3,18.5,30.00,NNW,333,3.0,4.0,85,0.00,,---,0.00,VWS V13.01,2013-02-24 10:52:00,
2013-02-24 04:57:00,22.4,18.6,30.01,North,355,2.0,4.0,85,0.00,,---,0.00,VWS V13.01,2013-02-24 10:57:00,
2013-02-24 05:02:00,22.3,18.5,30.01,NNW,346,4.0,4.0,85,0.00,,---,0.00,VWS V13.01,2013-02-24 11:02:00,
2013-02-24 05:08:00,22.3,18.5,30.01,NNW,345,2.0,4.0,85,0.00,,---,0.00,VWS V13.01,2013-02-24 11:08:00,
2013-02-24 05:13:00,22.3,18.5,30.01,NNW,345,1.0,4.0,85,0.00,,---,0.00,VWS V13.01,2013-02-24 11:13:00,
2013-02-24 05:18:00,22.3,20.3,30.01,NNW,345,0.0,4.0,92,0.00,,---,0.00,VWS V13.01,2013-02-24 11:18:00,
2013-02-24 05:23:00,22.3,18.5,30.01,North,360,1.0,4.0,85,0.00,,---,0.00,VWS V13.01,2013-02-24 11:23:00,
2013-02-24 05:28:00,22.3,18.5,30.02,North,360,0.0,4.0,85,0.00,,---,0.00,VWS V13.01,2013-02-24 11:28:00,
2013-02-24 05:33:00,22.2,18.4,30.02,North,360,1.0,2.0,85,0.00,,---,0.00,VWS V13.01,2013-02-24 11:33:00,
2013-02-24 05:38:00,22.3,18.5,30.02,North,360,0.0,2.0,85,0.00,,---,0.00,VWS V13.01,2013-02-24 11:38:00,
2013-02-24 05:43:00,22.3,18.5,30.02,North,360,0.0,2.0,85,0.00,,---,0.00,VWS V13.01,2013-02-24 11:43:00,
2013-02-24 05:48:00,22.3,18.8,30.03,NW,325,2.0,3.0,86,0.00,,---,0.00,VWS V13.01,2013-02-24 11:48:00,
2013-02-24 05:53:00,22.3,18.8,30.03,NNW,346,2.0,3.0,86,0.00,,---,0.00,VWS V13.01,2013-02-24 11:53:00,
2013-02-24 05:58:00,22.4,18.9,30.03,NNW,346,2.0,3.0,86,0.00,,---,0.00,VWS V13.01,2013-02-24 11:58:00,
2013-02-24 06:03:00,22.4,18.9,30.03,NNW,346,1.0,2.0,86,0.00,,---,0.00,VWS V13.01,2013-02-24 12:03:00,
2013-02-24 06:08:00,22.4,18.6,30.03,NNW,346,1.0,2.0,85,0.00,,---,0.00,VWS V13.01,2013-02-24 12:08:00,
2013-02-24 06:13:00,22.4,18.9,30.03,North,360,0.0,4.0,86,0.00,,---,0.00,VWS V13.01,2013-02-24 12:13:00,
2013-02-24 06:18:00,22.4,18.9,30.03,North,5,1.0,4.0,86,0.00,,---,0.00,VWS V13.01,2013-02-24 12:18:00,
2013-02-24 06:23:00,22.4,18.9,30.03,North,5,2.0,4.0,86,0.00,,---,0.00,VWS V13.01,2013-02-24 12:23:00,
2013-02-24 06:28:00,22.4,18.6,30.03,NNW,346,1.0,4.0,85,0.00,,---,0.00,VWS V13.01,2013-02-24 12:28:00,
2013-02-24 06:33:00,22.4,18.6,30.03,North,360,1.0,3.0,85,0.00,,---,0.00,VWS V13.01,2013-02-24 12:33:00,
2013-02-24 06:38:00,22.3,18.5,30.03,NNW,348,1.0,4.0,85,0.00,,---,0.00,VWS V13.01,2013-02-24 12:38:00,
2013-02-24 06:43:00,22.3,18.8,30.04,NNW,335,2.0,4.0,86,0.00,,---,0.00,VWS V13.01,2013-02-24 12:43:00,
2013-02-24 06:48:00,22.2,18.4,30.04,North,5,1.0,4.0,85,0.00,,---,0.00,VWS V13.01,2013-02-24 12:48:00,
2013-02-24 06:53:00,22.2,18.4,30.04,NNW,338,2.0,4.0,85,0.00,,---,0.00,VWS V13.01,2013-02-24 12:53:00,
2013-02-24 06:58:00,22.2,18.4,30.04,NNW,344,2.0,4.0,85,0.00,,---,0.00,VWS V13.01,2013-02-24 12:58:00,
2013-02-24 07:03:00,22.2,18.4,30.04,NNW,348,2.0,2.0,85,0.00,,---,0.00,VWS V13.01,2013-02-24 13:03:00,
2013-02-24 07:09:00,22.2,18.4,30.05,NNW,347,2.0,3.0,85,0.00,,---,0.00,VWS V13.01,2013-02-24 13:09:00,
2013-02-24 07:14:00,22.2,18.4,30.05,NNW,348,1.0,5.0,85,0.00,,---,0.00,VWS V13.01,2013-02-24 13:14:00,
2013-02-24 07:19:00,22.2,18.4,30.05,NNW,346,4.0,5.0,85,0.00,,---,0.00,VWS V13.01,2013-02-24 13:19:00,
2013-02-24 07:24:00,22.3,18.5,30.05,NNW,344,2.0,5.0,85,0.00,,---,0.00,VWS V13.01,2013-02-24 13:24:00,
2013-02-24 07:29:00,22.4,18.6,30.06,NNW,342,2.0,5.0,85,0.00,,---,0.00,VWS V13.01,2013-02-24 13:29:00,
2013-02-24 07:34:00,22.4,18.6,30.06,NNW,345,1.0,2.0,85,0.00,,---,0.00,VWS V13.01,2013-02-24 13:34:00,
2013-02-24 07:39:00,22.5,18.7,30.06,NNW,345,2.0,2.0,85,0.00,,---,0.00,VWS V13.01,2013-02-24 13:39:00,
2013-02-24 07:44:00,22.6,18.8,30.06,NNW,345,0.0,3.0,85,0.00,,---,0.00,VWS V13.01,2013-02-24 13:44:00,
2013-02-24 07:49:00,22.7,18.9,30.06,NNW,340,2.0,3.0,85,0.00,,---,0.00,VWS V13.01,2013-02-24 13:49:00,
2013-02-24 07:54:00,22.7,18.9,30.07,NNW,340,2.0,3.0,85,0.00,,---,0.00,VWS V13.01,2013-02-24 13:54:00,
2013-02-24 07:59:00,22.9,18.8,30.07,NNW,343,1.0,4.0,84,0.00,,---,0.00,VWS V13.01,2013-02-24 13:59:00,
2013-02-24 08:04:00,23.1,19.0,30.07,NNW,343,2.0,3.0,84,0.00,,---,0.00,VWS V13.01,2013-02-24 14:04:00,
2013-02-24 08:09:00,23.3,19.2,30.07,NW,321,2.0,3.0,84,0.00,,---,0.00,VWS V13.01,2013-02-24 14:09:00,
2013-02-24 08:14:00,23.4,19.0,30.07,NNW,345,1.0,3.0,83,0.00,,---,0.00,VWS V13.01,2013-02-24 14:14:00,
2013-02-24 08:19:00,23.6,19.2,30.07,NNW,346,2.0,3.0,83,0.00,,---,0.00,VWS V13.01,2013-02-24 14:19:00,
2013-02-24 08:24:00,23.7,19.3,30.07,North,349,2.0,3.0,83,0.00,,---,0.00,VWS V13.01,2013-02-24 14:24:00,
2013-02-24 08:29:00,23.8,19.4,30.07,NNW,343,2.0,3.0,83,0.00,,---,0.00,VWS V13.01,2013-02-24 14:29:00,
2013-02-24 08:34:00,23.8,18.8,30.07,NNW,342,1.0,2.0,81,0.00,,---,0.00,VWS V13.01,2013-02-24 14:34:00,
2013-02-24 08:39:00,23.9,19.5,30.07,NNW,343,2.0,2.0,83,0.00,,---,0.00,VWS V13.01,2013-02-24 14:39:00,
2013-02-24 08:44:00,24.3,19.9,30.08,NNW,343,1.0,3.0,83,0.00,,---,0.00,VWS V13.01,2013-02-24 14:44:00,
2013-02-24 08:49:00,24.5,19.8,30.08,NNW,343,1.0,3.0,82,0.00,,---,0.00,VWS V13.01,2013-02-24 14:49:00,
2013-02-24 08:54:00,24.6,19.9,30.08,NNW,343,0.0,3.0,82,0.00,,---,0.00,VWS V13.01,2013-02-24 14:54:00,
2013-02-24 08:59:00,24.7,20.0,30.08,NNW,343,0.0,3.0,82,0.00,,---,0.00,VWS V13.01,2013-02-24 14:59:00,
2013-02-24 09:04:00,24.9,20.2,30.08,NNW,341,1.0,1.0,82,0.00,,---,0.00,VWS V13.01,2013-02-24 15:04:00,
2013-02-24 09:09:00,24.9,19.9,30.08,NNW,341,0.0,1.0,81,0.00,,---,0.00,VWS V13.01,2013-02-24 15:09:00,
2013-02-24 09:14:00,24.9,19.9,30.08,NNW,342,0.0,1.0,81,0.00,,---,0.00,VWS V13.01,2013-02-24 15:14:00,
2013-02-24 09:19:00,25.2,20.5,30.08,NNW,342,0.0,1.0,82,0.00,,---,0.00,VWS V13.01,2013-02-24 15:19:00,
2013-02-24 09:24:00,25.1,19.8,30.08,NNW,342,1.0,2.0,80,0.00,,---,0.00,VWS V13.01,2013-02-24 15:24:00,
2013-02-24 09:29:00,25.2,19.9,30.08,NNW,341,0.0,2.0,80,0.00,,---,0.00,VWS V13.01,2013-02-24 15:29:00,
2013-02-24 09:34:00,25.3,20.0,30.08,NNW,342,1.0,2.0,80,0.00,,---,0.00,VWS V13.01,2013-02-24 15:34:00,
2013-02-24 09:39:00,25.6,20.3,30.08,NNW,342,2.0,3.0,80,0.00,,---,0.00,VWS V13.01,2013-02-24 15:39:00,
2013-02-24 09:44:00,25.9,20.3,30.08,NNW,342,2.0,3.0,79,0.00,,---,0.00,VWS V13.01,2013-02-24 15:44:00,
2013-02-24 09:49:00,26.1,20.5,30.08,NNW,344,1.0,3.0,79,0.00,,---,0.00,VWS V13.01,2013-02-24 15:49:00,
2013-02-24 09:54:00,26.3,20.7,30.08,North,355,0.0,3.0,79,0.00,,---,0.00,VWS V13.01,2013-02-24 15:54:00,
2013-02-24 09:59:00,26.5,20.3,30.08,North,350,1.0,3.0,77,0.00,,---,0.00,VWS V13.01,2013-02-24 15:59:00,
2013-02-24 10:04:00,26.5,20.3,30.08,North,355,2.0,3.0,77,0.00,,---,0.00,VWS V13.01,2013-02-24 16:04:00,
2013-02-24 10:09:00,26.8,20.3,30.08,North,355,3.0,3.0,76,0.00,,---,0.00,VWS V13.01,2013-02-24 16:09:00,
2013-02-24 10:14:00,26.8,20.6,30.08,NNW,346,2.0,6.0,77,0.00,,---,0.00,VWS V13.01,2013-02-24 16:14:00,
2013-02-24 10:19:00,26.9,20.4,30.08,North,355,4.0,6.0,76,0.00,,---,0.00,VWS V13.01,2013-02-24 16:19:00,
2013-02-24 10:24:00,26.9,20.4,30.09,North,355,2.0,6.0,76,0.00,,---,0.00,VWS V13.01,2013-02-24 16:24:00,
2013-02-24 10:29:00,26.9,20.4,30.08,NNW,347,2.0,6.0,76,0.00,,---,0.00,VWS V13.01,2013-02-24 16:29:00,
2013-02-24 10:34:00,27.1,20.2,30.08,NNW,348,5.0,5.0,75,0.00,,---,0.00,VWS V13.01,2013-02-24 16:34:00,
2013-02-24 10:39:00,27.3,20.4,30.09,NNW,346,2.0,5.0,75,0.00,,---,0.00,VWS V13.01,2013-02-24 16:39:00,
2013-02-24 10:44:00,27.6,20.4,30.09,NNW,345,1.0,5.0,74,0.00,,---,0.00,VWS V13.01,2013-02-24 16:44:00,
2013-02-24 10:49:00,27.9,21.0,30.09,North,355,1.0,5.0,75,0.00,,---,0.00,VWS V13.01,2013-02-24 16:49:00,
2013-02-24 10:54:00,27.9,20.7,30.09,North,355,1.0,5.0,74,0.00,,---,0.00,VWS V13.01,2013-02-24 16:54:00,
2013-02-24 11:00:00,27.8,20.3,30.09,North,11,0.0,5.0,73,0.00,,---,0.00,VWS V13.01,2013-02-24 17:00:00,
2013-02-24 11:05:00,27.9,20.1,30.09,North,11,1.0,2.0,72,0.00,,---,0.00,VWS V13.01,2013-02-24 17:05:00,
2013-02-24 11:10:00,28.3,20.8,30.09,North,11,1.0,2.0,73,0.00,,---,0.00,VWS V13.01,2013-02-24 17:10:00,
2013-02-24 11:15:00,28.8,21.2,30.09,North,11,0.0,3.0,73,0.00,,---,0.00,VWS V13.01,2013-02-24 17:15:00,
2013-02-24 11:20:00,29.3,21.4,30.09,North,11,0.0,3.0,72,0.00,,---,0.00,VWS V13.01,2013-02-24 17:20:00,
2013-02-24 11:25:00,29.0,21.1,30.09,North,11,0.0,3.0,72,0.00,,---,0.00,VWS V13.01,2013-02-24 17:25:00,
2013-02-24 11:30:00,28.9,21.0,30.09,North,11,1.0,3.0,72,0.00,,---,0.00,VWS V13.01,2013-02-24 17:30:00,
2013-02-24 11:35:00,29.0,21.4,30.09,North,11,0.0,2.0,73,0.00,,---,0.00,VWS V13.01,2013-02-24 17:35:00,
2013-02-24 11:40:00,29.5,21.9,30.09,West,261,0.0,3.0,73,0.00,,---,0.00,VWS V13.01,2013-02-24 17:40:00,
2013-02-24 11:45:00,29.7,22.1,30.10,West,262,0.0,3.0,73,0.00,,---,0.00,VWS V13.01,2013-02-24 17:45:00,
2013-02-24 11:50:00,29.8,21.9,30.10,West,262,1.0,3.0,72,0.00,,---,0.00,VWS V13.01,2013-02-24 17:50:00,
2013-02-24 11:55:00,29.3,20.7,30.09,WNW,299,0.0,3.0,70,0.00,,---,0.00,VWS V13.01,2013-02-24 17:55:00,
2013-02-24 12:00:00,29.6,21.7,30.09,NNW,348,0.0,3.0,72,0.00,,---,0.00,VWS V13.01,2013-02-24 18:00:00,
2013-02-24 12:05:00,29.6,21.4,30.09,NNW,348,0.0,1.0,71,0.00,,---,0.00,VWS V13.01,2013-02-24 18:05:00,
2013-02-24 12:10:00,29.6,21.4,30.09,NNW,348,0.0,3.0,71,0.00,,---,0.00,VWS V13.01,2013-02-24 18:10:00,
2013-02-24 12:15:00,29.8,20.9,30.09,NNW,348,1.0,3.0,69,0.00,,---,0.00,VWS V13.01,2013-02-24 18:15:00,
2013-02-24 12:20:00,29.9,21.0,30.09,South,175,1.0,4.0,69,0.00,,---,0.00,VWS V13.01,2013-02-24 18:20:00,
2013-02-24 12:25:00,30.0,21.1,30.09,NW,317,1.0,4.0,69,0.00,,---,0.00,VWS V13.01,2013-02-24 18:25:00,
2013-02-24 12:30:00,29.7,20.8,30.09,NW,317,0.0,4.0,69,0.00,,---,0.00,VWS V13.01,2013-02-24 18:30:00,
2013-02-24 12:35:00,29.4,20.5,30.09,NW,317,1.0,3.0,69,0.00,,---,0.00,VWS V13.01,2013-02-24 18:35:00,
2013-02-24 12:40:00,29.3,20.4,30.09,NW,317,2.0,3.0,69,0.00,,---,0.00,VWS V13.01,2013-02-24 18:40:00,
2013-02-24 12:45:00,29.4,20.8,30.08,NNW,340,0.0,3.0,70,0.00,,---,0.00,VWS V13.01,2013-02-24 18:45:00,
2013-02-24 12:50:00,29.9,21.0,30.09,NNW,340,0.0,3.0,69,0.00,,---,0.00,VWS V13.01,2013-02-24 18:50:00,
2013-02-24 12:55:00,30.2,21.3,30.08,NNW,339,0.0,3.0,69,0.00,,---,0.00,VWS V13.01,2013-02-24 18:55:00,
2013-02-24 13:00:00,29.7,20.8,30.08,NNW,338,0.0,3.0,69,0.00,,---,0.00,VWS V13.01,2013-02-24 19:00:00,
2013-02-24 13:05:00,29.4,20.8,30.08,NNW,339,1.0,1.0,70,0.00,,---,0.00,VWS V13.01,2013-02-24 19:05:00,
2013-02-24 13:10:00,29.3,20.7,30.08,NNW,339,2.0,2.0,70,0.00,,---,0.00,VWS V13.01,2013-02-24 19:10:00,
2013-02-24 13:15:00,29.2,20.6,30.08,NNW,338,0.0,2.0,70,0.00,,---,0.00,VWS V13.01,2013-02-24 19:15:00,
2013-02-24 13:20:00,28.9,21.4,30.08,NNW,338,1.0,2.0,73,0.00,,---,0.00,VWS V13.01,2013-02-24 19:20:00,
2013-02-24 13:25:00,29.2,21.0,30.08,NNW,339,0.0,2.0,71,0.00,,---,0.00,VWS V13.01,2013-02-24 19:25:00,
2013-02-24 13:30:00,29.3,20.7,30.08,NNW,339,0.0,2.0,70,0.00,,---,0.00,VWS V13.01,2013-02-24 19:30:00,
2013-02-24 13:35:00,29.2,20.6,30.08,NNW,338,0.0,1.0,70,0.01,,---,0.01,VWS V13.01,2013-02-24 19:35:00,
2013-02-24 13:40:00,29.3,21.1,30.08,NNW,338,0.0,1.0,71,0.01,,---,0.01,VWS V13.01,2013-02-24 19:40:00,
2013-02-24 13:45:00,29.4,20.5,30.08,NNW,339,0.0,1.0,69,0.01,,---,0.01,VWS V13.01,2013-02-24 19:45:00,
2013-02-24 13:50:00,29.3,20.7,30.09,NNW,339,0.0,1.0,70,0.01,,---,0.01,VWS V13.01,2013-02-24 19:50:00,
2013-02-24 13:55:00,30.0,21.1,30.09,NNW,338,1.0,1.0,69,0.01,,---,0.01,VWS V13.01,2013-02-24 19:55:00,
2013-02-24 14:00:00,29.8,20.5,30.09,NNW,339,1.0,1.0,68,0.01,,---,0.01,VWS V13.01,2013-02-24 20:00:00,
2013-02-24 14:05:00,29.7,21.5,30.09,NNW,339,0.0,1.0,71,0.01,,---,0.01,VWS V13.01,2013-02-24 20:05:00,
2013-02-24 14:10:00,29.9,21.0,30.09,NNW,339,0.0,2.0,69,0.01,,---,0.01,VWS V13.01,2013-02-24 20:10:00,
2013-02-24 14:15:00,29.7,20.8,30.09,NNW,338,0.0,2.0,69,0.01,,---,0.01,VWS V13.01,2013-02-24 20:15:00,
2013-02-24 14:21:00,29.8,21.6,30.09,NNW,339,0.0,2.0,71,0.01,,---,0.01,VWS V13.01,2013-02-24 20:21:00,
2013-02-24 14:26:00,30.4,21.5,30.09,NNW,339,0.0,2.0,69,0.01,,---,0.01,VWS V13.01,2013-02-24 20:26:00,
2013-02-24 14:31:00,30.6,21.0,30.09,NNW,339,0.0,2.0,67,0.01,,---,0.01,VWS V13.01,2013-02-24 20:31:00,
2013-02-24 14:36:00,31.0,21.0,30.09,NNW,338,1.0,2.0,66,0.01,,---,0.01,VWS V13.01,2013-02-24 20:36:00,
2013-02-24 14:41:00,31.3,21.3,30.09,NNW,342,0.0,3.0,66,0.01,,---,0.01,VWS V13.01,2013-02-24 20:41:00,
2013-02-24 14:46:00,31.4,21.7,30.09,NNW,342,0.0,3.0,67,0.01,,---,0.01,VWS V13.01,2013-02-24 20:46:00,
2013-02-24 14:51:00,31.5,21.1,30.09,NNW,342,0.0,3.0,65,0.01,,---,0.01,VWS V13.01,2013-02-24 20:51:00,
2013-02-24 14:56:00,31.3,22.0,30.10,NNW,342,0.0,3.0,68,0.01,,---,0.01,VWS V13.01,2013-02-24 20:56:00,
2013-02-24 15:01:00,31.7,22.0,30.09,NNW,342,1.0,3.0,67,0.01,,---,0.01,VWS V13.01,2013-02-24 21:01:00,
2013-02-24 15:06:00,31.7,21.7,30.09,NNW,342,0.0,1.0,66,0.00,,---,0.01,VWS V13.01,2013-02-24 21:06:00,
2013-02-24 15:11:00,31.9,22.2,30.10,NNW,342,0.0,1.0,67,0.00,,---,0.01,VWS V13.01,2013-02-24 21:11:00,
2013-02-24 15:16:00,32.0,21.9,30.09,NNW,342,0.0,1.0,66,0.00,,---,0.01,VWS V13.01,2013-02-24 21:16:00,
2013-02-24 15:21:00,31.9,21.5,30.09,NNW,342,0.0,2.0,65,0.00,,---,0.01,VWS V13.01,2013-02-24 21:21:00,
2013-02-24 15:26:00,31.9,22.5,30.10,NNW,342,0.0,2.0,68,0.00,,---,0.01,VWS V13.01,2013-02-24 21:26:00,
2013-02-24 15:31:00,32.0,21.9,30.10,NNW,342,0.0,2.0,66,0.00,,---,0.01,VWS V13.01,2013-02-24 21:31:00,
2013-02-24 15:36:00,32.2,22.8,30.10,NNW,342,0.0,0.0,68,0.00,,---,0.01,VWS V13.01,2013-02-24 21:36:00,
2013-02-24 15:41:00,32.2,22.5,30.10,NNW,342,1.0,1.0,67,0.00,,---,0.01,VWS V13.01,2013-02-24 21:41:00,
2013-02-24 15:46:00,32.1,22.8,30.10,NNW,342,0.0,2.0,68,0.00,,---,0.01,VWS V13.01,2013-02-24 21:46:00,
2013-02-24 15:51:00,32.1,22.4,30.10,NNW,342,1.0,2.0,67,0.00,,---,0.01,VWS V13.01,2013-02-24 21:51:00,
2013-02-24 15:56:00,32.0,21.9,30.10,NNW,342,0.0,2.0,66,0.00,,---,0.01,VWS V13.01,2013-02-24 21:56:00,
2013-02-24 16:01:00,32.0,23.3,30.10,NNW,342,1.0,2.0,70,0.00,,---,0.01,VWS V13.01,2013-02-24 22:01:00,
2013-02-24 16:06:00,32.0,22.6,30.10,WSW,250,1.0,2.0,68,0.00,,---,0.01,VWS V13.01,2013-02-24 22:06:00,
2013-02-24 16:11:00,32.0,22.6,30.11,West,272,0.0,2.0,68,0.00,,---,0.01,VWS V13.01,2013-02-24 22:11:00,
2013-02-24 16:16:00,31.8,22.5,30.11,West,272,0.0,2.0,68,0.00,,---,0.01,VWS V13.01,2013-02-24 22:16:00,
2013-02-24 16:21:00,31.6,23.0,30.11,West,272,0.0,2.0,70,0.00,,---,0.01,VWS V13.01,2013-02-24 22:21:00,
2013-02-24 16:26:00,31.3,22.7,30.11,West,272,2.0,2.0,70,0.00,,---,0.01,VWS V13.01,2013-02-24 22:26:00,
2013-02-24 16:31:00,31.1,22.1,30.11,West,272,0.0,2.0,69,0.00,,---,0.01,VWS V13.01,2013-02-24 22:31:00,
2013-02-24 16:36:00,31.0,22.4,30.11,West,272,1.0,2.0,70,0.00,,---,0.01,VWS V13.01,2013-02-24 22:36:00,
2013-02-24 16:41:00,30.9,22.3,30.11,West,272,0.0,2.0,70,0.00,,---,0.01,VWS V13.01,2013-02-24 22:41:00,
2013-02-24 16:46:00,30.8,22.2,30.11,West,272,0.0,2.0,70,0.00,,---,0.01,VWS V13.01,2013-02-24 22:46:00,
2013-02-24 16:51:00,30.6,22.0,30.11,West,272,0.0,2.0,70,0.00,,---,0.01,VWS V13.01,2013-02-24 22:51:00,
2013-02-24 16:56:00,30.4,22.1,30.11,West,272,1.0,2.0,71,0.00,,---,0.01,VWS V13.01,2013-02-24 22:56:00,
2013-02-24 17:01:00,30.2,22.3,30.11,West,272,0.0,2.0,72,0.00,,---,0.01,VWS V13.01,2013-02-24 23:01:00,
2013-02-24 17:06:00,30.2,22.3,30.11,West,281,1.0,1.0,72,0.00,,---,0.01,VWS V13.01,2013-02-24 23:06:00,
2013-02-24 17:11:00,30.1,22.2,30.11,WNW,284,1.0,2.0,72,0.00,,---,0.01,VWS V13.01,2013-02-24 23:11:00,
2013-02-24 17:16:00,30.0,22.1,30.11,WNW,284,0.0,2.0,72,0.00,,---,0.01,VWS V13.01,2013-02-24 23:16:00,
2013-02-24 17:21:00,29.9,22.3,30.11,NW,326,1.0,2.0,73,0.00,,---,0.01,VWS V13.01,2013-02-24 23:21:00,
2013-02-24 17:26:00,29.9,22.3,30.11,NW,326,0.0,2.0,73,0.00,,---,0.01,VWS V13.01,2013-02-24 23:26:00,
2013-02-24 17:31:00,29.8,22.2,30.11,NW,326,0.0,2.0,73,0.00,,---,0.01,VWS V13.01,2013-02-24 23:31:00,
2013-02-24 17:36:00,29.7,22.1,30.11,NW,326,0.0,0.0,73,0.00,,---,0.01,VWS V13.01,2013-02-24 23:36:00,
2013-02-24 17:41:00,29.7,22.4,30.11,NW,326,0.0,0.0,74,0.00,,---,0.01,VWS V13.01,2013-02-24 23:41:00,
2013-02-24 17:46:00,29.6,22.4,30.11,NW,326,0.0,1.0,74,0.00,,---,0.01,VWS V13.01,2013-02-24 23:46:00,
2013-02-24 17:51:00,29.5,22.2,30.12,NW,326,0.0,1.0,74,0.00,,---,0.01,VWS V13.01,2013-02-24 23:51:00,
2013-02-24 17:56:00,29.5,22.6,30.12,NW,326,0.0,1.0,75,0.00,,---,0.01,VWS V13.01,2013-02-24 23:56:00,
2013-02-24 18:01:00,29.4,22.5,30.12,NW,326,1.0,1.0,75,0.00,,---,0.01,VWS V13.01,2013-02-25 00:01:00,
2013-02-24 18:06:00,29.3,22.4,30.12,NW,326,0.0,0.0,75,0.00,,---,0.01,VWS V13.01,2013-02-25 00:06:00,
2013-02-24 18:11:00,29.2,22.3,30.12,NW,326,0.0,0.0,75,0.00,,---,0.01,VWS V13.01,2013-02-25 00:11:00,
2013-02-24 18:16:00,29.1,22.2,30.13,NW,326,0.0,1.0,75,0.00,,---,0.01,VWS V13.01,2013-02-25 00:16:00,
2013-02-24 18:21:00,29.0,22.1,30.12,NW,326,0.0,1.0,75,0.00,,---,0.01,VWS V13.01,2013-02-25 00:21:00,
2013-02-24 18:26:00,28.9,22.0,30.12,NW,326,0.0,1.0,75,0.00,,---,0.01,VWS V13.01,2013-02-25 00:26:00,
2013-02-24 18:31:00,28.9,22.0,30.13,NW,326,0.0,1.0,75,0.00,,---,0.01,VWS V13.01,2013-02-25 00:31:00,
2013-02-24 18:36:00,28.8,21.9,30.13,NW,326,0.0,1.0,75,0.00,,---,0.01,VWS V13.01,2013-02-25 00:36:00,
2013-02-24 18:41:00,28.8,22.2,30.13,NW,326,0.0,1.0,76,0.00,,---,0.01,VWS V13.01,2013-02-25 00:41:00,
2013-02-24 18:46:00,28.7,22.1,30.13,NW,326,0.0,1.0,76,0.00,,---,0.01,VWS V13.01,2013-02-25 00:46:00,
2013-02-24 18:51:00,28.6,22.0,30.13,NW,326,0.0,1.0,76,0.00,,---,0.01,VWS V13.01,2013-02-25 00:51:00,
2013-02-24 18:56:00,28.5,21.9,30.13,NW,326,0.0,1.0,76,0.00,,---,0.01,VWS V13.01,2013-02-25 00:56:00,
2013-02-24 19:02:00,28.5,21.9,30.13,NW,326,0.0,1.0,76,0.00,,---,0.01,VWS V13.01,2013-02-25 01:02:00,
2013-02-24 19:07:00,28.4,21.8,30.13,NW,326,0.0,0.0,76,0.00,,---,0.01,VWS V13.01,2013-02-25 01:07:00,
2013-02-24 19:12:00,28.4,21.8,30.13,NW,326,0.0,0.0,76,0.00,,---,0.01,VWS V13.01,2013-02-25 01:12:00,
2013-02-24 19:17:00,28.3,22.0,30.13,NW,326,0.0,1.0,77,0.00,,---,0.01,VWS V13.01,2013-02-25 01:17:00,
2013-02-24 19:22:00,28.2,21.9,30.13,NW,326,0.0,1.0,77,0.00,,---,0.01,VWS V13.01,2013-02-25 01:22:00,
2013-02-24 19:27:00,28.2,21.9,30.13,NW,326,0.0,1.0,77,0.00,,---,0.01,VWS V13.01,2013-02-25 01:27:00,
2013-02-24 19:32:00,28.1,21.8,30.14,NW,326,0.0,1.0,77,0.00,,---,0.01,VWS V13.01,2013-02-25 01:32:00,
2013-02-24 19:37:00,28.0,21.7,30.14,NW,326,0.0,0.0,77,0.00,,---,0.01,VWS V13.01,2013-02-25 01:37:00,
2013-02-24 19:42:00,28.0,22.0,30.14,NW,326,0.0,0.0,78,0.00,,---,0.01,VWS V13.01,2013-02-25 01:42:00,
2013-02-24 19:47:00,27.9,21.9,30.14,NW,326,0.0,0.0,78,0.00,,---,0.01,VWS V13.01,2013-02-25 01:47:00,
2013-02-24 19:52:00,27.8,21.9,30.14,NW,326,0.0,0.0,78,0.00,,---,0.01,VWS V13.01,2013-02-25 01:52:00,
2013-02-24 19:57:00,27.7,21.8,30.14,NW,326,0.0,0.0,78,0.00,,---,0.01,VWS V13.01,2013-02-25 01:57:00,
2013-02-24 20:02:00,27.6,21.6,30.14,NNW,327,0.0,0.0,78,0.00,,---,0.01,VWS V13.01,2013-02-25 02:02:00,
2013-02-24 20:07:00,27.5,21.5,30.14,NW,326,0.0,0.0,78,0.00,,---,0.01,VWS V13.01,2013-02-25 02:07:00,
2013-02-24 20:12:00,27.4,21.5,30.14,NW,326,0.0,0.0,78,0.00,,---,0.01,VWS V13.01,2013-02-25 02:12:00,
2013-02-24 20:17:00,27.2,21.3,30.14,NNW,327,0.0,0.0,78,0.00,,---,0.01,VWS V13.01,2013-02-25 02:17:00,
2013-02-24 20:22:00,27.1,21.2,30.14,NW,326,0.0,0.0,78,0.00,,---,0.01,VWS V13.01,2013-02-25 02:22:00,
2013-02-24 20:27:00,27.0,21.1,30.14,NW,326,0.0,0.0,78,0.00,,---,0.01,VWS V13.01,2013-02-25 02:27:00,
2013-02-24 20:32:00,26.8,21.2,30.14,NW,326,0.0,0.0,79,0.00,,---,0.01,VWS V13.01,2013-02-25 02:32:00,
2013-02-24 20:37:00,26.7,21.1,30.14,NW,326,0.0,0.0,79,0.00,,---,0.01,VWS V13.01,2013-02-25 02:37:00,
2013-02-24 20:42:00,26.5,20.9,30.14,NW,326,0.0,0.0,79,0.00,,---,0.01,VWS V13.01,2013-02-25 02:42:00,
2013-02-24 20:47:00,26.3,20.7,30.14,NW,326,0.0,0.0,79,0.00,,---,0.01,VWS V13.01,2013-02-25 02:47:00,
2013-02-24 20:52:00,26.2,20.9,30.14,NW,326,0.0,0.0,80,0.00,,---,0.01,VWS V13.01,2013-02-25 02:52:00,
2013-02-24 20:57:00,26.0,20.7,30.14,NW,326,0.0,0.0,80,0.00,,---,0.01,VWS V13.01,2013-02-25 02:57:00,
2013-02-24 21:02:00,25.8,20.5,30.14,NW,326,0.0,0.0,80,0.00,,---,0.01,VWS V13.01,2013-02-25 03:02:00,
2013-02-24 21:07:00,25.6,20.3,30.14,NW,326,0.0,0.0,80,0.00,,---,0.01,VWS V13.01,2013-02-25 03:07:00,
2013-02-24 21:12:00,25.4,20.1,30.14,NW,326,0.0,0.0,80,0.00,,---,0.01,VWS V13.01,2013-02-25 03:12:00,
2013-02-24 21:17:00,25.1,19.8,30.14,NW,326,0.0,0.0,80,0.00,,---,0.01,VWS V13.01,2013-02-25 03:17:00,
2013-02-24 21:22:00,24.9,19.9,30.14,NW,326,0.0,0.0,81,0.00,,---,0.01,VWS V13.01,2013-02-25 03:22:00,
2013-02-24 21:27:00,24.7,19.7,30.14,NW,326,0.0,0.0,81,0.00,,---,0.01,VWS V13.01,2013-02-25 03:27:00,
2013-02-24 21:32:00,24.6,19.3,30.14,NW,326,0.0,0.0,80,0.00,,---,0.01,VWS V13.01,2013-02-25 03:32:00,
2013-02-24 21:37:00,24.4,19.4,30.14,NW,326,0.0,0.0,81,0.00,,---,0.01,VWS V13.01,2013-02-25 03:37:00,
2013-02-24 21:42:00,24.2,19.2,30.14,NW,326,0.0,0.0,81,0.00,,---,0.01,VWS V13.01,2013-02-25 03:42:00,
2013-02-24 21:47:00,24.0,19.3,30.14,NW,326,0.0,0.0,82,0.00,,---,0.01,VWS V13.01,2013-02-25 03:47:00,
2013-02-24 21:52:00,23.8,18.8,30.14,NW,326,0.0,0.0,81,0.00,,---,0.01,VWS V13.01,2013-02-25 03:52:00,
2013-02-24 21:57:00,23.5,18.5,30.14,NW,326,0.0,0.0,81,0.00,,---,0.01,VWS V13.01,2013-02-25 03:57:00,
2013-02-24 22:02:00,23.2,18.0,30.14,NW,326,0.0,0.0,80,0.00,,---,0.01,VWS V13.01,2013-02-25 04:02:00,
2013-02-24 22:07:00,22.9,17.7,30.15,NW,326,0.0,0.0,80,0.00,,---,0.01,VWS V13.01,2013-02-25 04:07:00,
2013-02-24 22:12:00,22.7,17.8,30.15,NW,326,0.0,0.0,81,0.00,,---,0.01,VWS V13.01,2013-02-25 04:12:00,
2013-02-24 22:17:00,22.5,17.6,30.15,NW,326,0.0,0.0,81,0.00,,---,0.01,VWS V13.01,2013-02-25 04:17:00,
2013-02-24 22:22:00,22.2,17.3,30.15,NW,326,0.0,0.0,81,0.00,,---,0.01,VWS V13.01,2013-02-25 04:22:00,
2013-02-24 22:27:00,21.8,16.9,30.15,NW,326,0.0,0.0,81,0.00,,---,0.01,VWS V13.01,2013-02-25 04:27:00,
2013-02-24 22:32:00,21.6,16.7,30.15,NW,326,0.0,0.0,81,0.00,,---,0.01,VWS V13.01,2013-02-25 04:32:00,
2013-02-24 22:37:00,21.4,16.8,30.14,NW,326,0.0,0.0,82,0.00,,---,0.01,VWS V13.01,2013-02-25 04:37:00,
2013-02-24 22:42:00,21.2,16.6,30.15,NW,326,0.0,0.0,82,0.00,,---,0.01,VWS V13.01,2013-02-25 04:42:00,
2013-02-24 22:47:00,20.9,16.0,30.15,NW,326,0.0,0.0,81,0.00,,---,0.01,VWS V13.01,2013-02-25 04:47:00,
2013-02-24 22:52:00,20.6,15.7,30.14,NW,326,0.0,0.0,81,0.00,,---,0.01,VWS V13.01,2013-02-25 04:52:00,
2013-02-24 22:57:00,20.2,15.3,30.14,NW,326,0.0,0.0,81,0.00,,---,0.01,VWS V13.01,2013-02-25 04:57:00,
2013-02-24 23:00:00,20.0,15.1,30.14,NW,326,0.0,0.0,81,0.00,,---,0.01,VWS V13.01,2013-02-25 05:00:00,
2013-02-24 23:05:00,19.7,15.1,30.14,NW,326,0.0,0.0,82,0.00,,---,0.01,VWS V13.01,2013-02-25 05:05:00,
2013-02-24 23:10:00,19.5,14.9,30.14,NW,326,0.0,0.0,82,0.00,,---,0.01,VWS V13.01,2013-02-25 05:10:00,
2013-02-24 23:15:00,19.2,14.6,30.15,NW,326,0.0,0.0,82,0.00,,---,0.01,VWS V13.01,2013-02-25 05:15:00,
2013-02-24 23:20:00,18.9,14.6,30.15,NW,326,0.0,0.0,83,0.00,,---,0.01,VWS V13.01,2013-02-25 05:20:00,
2013-02-24 23:26:00,18.6,14.3,30.15,NW,326,0.0,0.0,83,0.00,,---,0.01,VWS V13.01,2013-02-25 05:26:00,
2013-02-24 23:31:00,18.3,14.0,30.15,NW,326,0.0,0.0,83,0.00,,---,0.01,VWS V13.01,2013-02-25 05:31:00,
2013-02-24 23:36:00,18.1,13.8,30.15,NW,326,0.0,0.0,83,0.00,,---,0.01,VWS V13.01,2013-02-25 05:36:00,
2013-02-24 23:41:00,17.8,13.8,30.15,NW,326,0.0,0.0,84,0.00,,---,0.01,VWS V13.01,2013-02-25 05:41:00,
2013-02-24 23:46:00,17.6,13.6,30.15,NW,326,0.0,0.0,84,0.00,,---,0.01,VWS V13.01,2013-02-25 05:46:00,
2013-02-24 23:51:00,17.4,13.4,30.15,NW,326,0.0,0.0,84,0.00,,---,0.01,VWS V13.01,2013-02-25 05:51:00,
2013-02-24 23:56:00,17.2,13.2,30.15,NW,326,0.0,0.0,84,0.00,,---,0.01,VWS V13.01,2013-02-25 05:56:00,